Погода в Полтаве

Погода в Полтаве : погода сейчас, прогноз погоды и архив. Всё, что Вы хотите узнать о погоде в Полтаве!

Поиск расширенной информации на нашем сайте:

Другие новости

Новости СМИ2

Главная страница сайта

Новости сайта

03.07.2017

Напоминаем, что на нашем специализированном сайте Метеоцентр.Азия вы можете получить высокодетализированные автоматические прогнозы погоды по пунктам России, СНГ и мира в авиационном формате (включающие направление и скорость ветра, видимость, явления погоды, количество и форму облачности, нижнюю и верхнюю границу облачности).


Погода в Полтаве - сегодня

Время (UTC), дата Ветер
(°,м/с) 
Видим.   Явления Облачность Т
(°С)
Тd
(°С)
f(%) Тe
(°С)
Pmin
(гПа)
dP
(гПа)
Po
(мм)
O2
(г/м3)
Тmin Tmax R s Состояние
почвы
03 19.09.17 290 (З) 10 км    8/0 верхняя 
[Ci fib]
+11.4 +6.3 71 +12  1017.5  749  289           
06 19.09.17 320 (СЗ) 10 км    8/0 верхняя 
[Ci]
+15.7 +6.2 53 +16  1018.8  1.6  750  285  +10.9         
09 19.09.17 300 (СЗ) 10 км    4/0 верхняя 
[Ci fib]
+19.9 +6.9 43 +21  1018.7  0.2  750  281           
12 19.09.17 330 (СЗ) 10 км    3/0 верхняя 
[Ci fib]
+22.3 +6.2 35 +22  1017.9  -0.7  749  278           
15 19.09.17 360 (С) 10 км    4/0 средняя, верхняя 
[Ac trans|Ci fib]
+20.7 +4.2 34 +21  1017.8  -0.2  749  280           
18 19.09.17 040 (СВ) 10 км    ясно 
+17.3 +4.4 42 +18  1018.4  0.4  750  283    +22.8       
21 19.09.17 050 (СВ) 10 км    ясно 
+15.6 +5 49 +16  1018.4  0.1  750  285           
00 20.09.17 050 (СВ) 10 км    ясно 
+13.4 +4.8 56 +13  1018.4  -0.2  749  287           
03 20.09.17 050 (СВ) 10 км    4/0 верхняя 
[Cc]
+12.8 +4.5 57 +13  1018  -0.4  749  288           
06 20.09.17 070 (В) 10 км    5/0 верхняя 
[Ci fib]
+16.4 +5.6 49 +16  1017.3  -0.4  749  284  +12.7  +2       
09 20.09.17 090 (В) 10 км    6/4 1000 м средняя 
[Sc|Ac cast]
+23.6 +6 32 +24  1015.9  -0.9  748  277           
12 20.09.17 090 (В) 10 км    5/0 средняя, верхняя 
[Ac trans|Cc]
+28.2 +7.1 26 +28  1013.8  -1.8  747  272           
15 20.09.17 080 (В) 10 км    3/0 верхняя 
[Cc]
+26.8 +7.3 29 +27  1013.1  -0.8  746  273           
18 20.09.17 070 (В) 10 км    ясно 
+21.7 +6.1 36 +22  1012.9  -0.5  746  277    +28.9       
21 20.09.17 080 (В) 10 км    ясно 
+18.8 +6.1 43 +19  1013.1  746  280           
00 21.09.17 080 (В) 10 км    ясно 
+17.7 +8.2 54 +18  1013.4  0.2  746  281           
03 21.09.17 090 (В) 10 км    3/0 верхняя 
[Ci fib]
+16.5 +9 61 +17  1013.6  0.2  746  282           
06 21.09.17 100 (В) 10 км    6/1 1000 м средняя 
[Sc|Ac trans]
+19.6 +9.5 52 +21  1013  -0.4  746  279  +15.8         
09 21.09.17 120 (ЮВ) 10 км    1/0 средняя 
[Ac trans]
+28.4 +8.9 29 +28  1012  -0.5  745  271           
12 21.09.17 110 (В) 10 км    ясно 
+31.4 +6.4 21 +31  1010.7  -1.1  745  268           
15 21.09.17 110 (В) 10 км    8/0 средняя 
[Ac trans]
+29.6 +7.6 25 +30  1010.7  -0.1  745  269           
18 21.09.17 090 (В) 10 км    3/3 1000 м 
[Sc]
+24 +9.3 39 +24  1011.7  0.7  745  274           
21 21.09.17 090 (В) 10 км    3/3 1000 м 
[Sc]
+23 +10.3 45 +25  1012.5  0.7  746  275           
00 22.09.17 080 (В) 10 км    5/5 1000 м 
[Sc]
+20.2 +11.8 58 +24  1013.1  0.4  746  278           
03 22.09.17 070 (В) 10 км    3/0 верхняя 
[Ci fib]
+17.4 +11.1 66 +21  1013.2  -0.1  746  280           
Время (UTC), дата Ветер
(°,м/с) 
Видим.   Явления Облачность Т
(°С)
Тd
(°С)
f(%) Тe
(°С)
Pmin
(гПа)
dP
(гПа)
Po
(мм)
O2
(г/м3)
Тmin Tmax R s Состояние
почвы

Для получения пояснительной информации подведите курсор к названию столбца.

ПОГОДА в Полтаве - архив

Всё, что Вы хотите узнать о погоде в Полтаве - удобно и подробно!

Выберите нужную дату (начиная с 1 января 2015* года) и нажмите кнопку "Найти".
Будут отображены архивные сводки погоды по пункту Полтава, начиная с указанной даты.


Отображать данные в формате CSV (для использования в таблицах Excel)


Внимание! Наш архив погоды предназначен исключительно для личного некоммерческого использования в познавательных целях. Если Вам необходимы официальные справки о состоянии погоды (для производственных, юридических, коммерческих и т.п. целей), обращайтесь в органы Росгидромета.

*Примечание: данная дата относится к архиву по метеостанциям СССР (Россия, СНГ, Балтия).
Архив по метеостанциям Зарубежной Европы и Азии (кроме Китая) хранится 10 дней, по другим регионам земного шара (Китай, Африка, Америка, Австралия, Океания) - 1 день.

Полтава - район местоположения метеостанции


Название, широта, долгота, высота метеостанции:
Полтава 49.6°ш. 34.6°д. 160 м над ур. моря [Украина]

Дополнительная информация

В oтличие oт бoльшинства пoгoдных сайтoв мы публикуем пoдрoбную метеoинфoрмацию в детальнoм прoфессиoнальнoм фoрмате.

Характеристики температуры и влажнoсти вoздуха измеряются на высoте 2 м в тени вдали oт зданий и деревьев.
Скoрoсть ветра измеряется на высoте 10 м (на урoвне рoста челoвека скoрoсть ветра ниже в 1.5-2 раза). Если метеoстанция нахoдится в гoрoде или в лесу, тo скoрoсть ветра занижена на 2-4 м/с пo сравнению с oткрытым местoм. Скoрoсть ветра над акватoриями крупных рек и oзёр, а также на вершинах хoлмoв на 2-5 м/с выше, чем в oбычных услoвиях.
Атмoсфернoе давление в разных тoчках местнoсти мoжет значительнo oтличаться oт давления на метеoстанции, в зависимoсти oт услoвий рельефа (при пoдъёме на 10 м давление пoнижается примернo на 1 мм рт.ст.).